User: anonymous   Login
Location: Unspecified
(42.3650°N, 71.1030°W)
Time: 05:32:18
(UTC+00:00)
Language:

UKube-1 - Orbit

View from above orbital plane
View from above orbital plane
View from above satellite
View from above satellite

Ground track
Ground track

The orbit data is extracted from the following two-line orbital elements,

1 40074U 14037F   24197.79890562  .00010130  00000-0  94702-3 0  9999
2 40074  98.3413 129.4904 0003761   3.3554 356.7689 14.94340381543059
Epoch (UTC): 15 July 2024 19:10:25
Eccentricity: 0.0003761
inclination: 98.3413°
perigee height: 582 km
apogee height: 587 km
right ascension of ascending node: 129.4904°
argument of perigee: 3.3554°
revolutions per day: 14.94340381
mean anomaly at epoch: 356.7689°
orbit number at epoch: 54305

The dashed part of the orbit path shows where the satellite is in the earth's shadow,  

DLR